Total_Precipitation_Accumulation
0.00 0.00 0.00 0.00 0.00 0.00 0.00 0.01 0.02 0.05 0.08 0.02 0.00 0.00 0.02 0.04 0.07 0.04 0.04 0.01 0.03 0.02 0.01 0.01 0.00 0.00 0.00 0.00 0.00 0.00 0.00 0.00
0.00 0.00 0.00 0.00 0.00 0.00 0.00 0.00 0.00 0.02 0.04 0.00 0.00 0.00 0.00 0.05 0.15 0.06 0.23 0.10 0.10 0.04 0.01 0.00 0.00 0.00 0.00 0.00 0.00 0.00 0.00 0.00
0.00 0.00 0.00 0.00 0.00 0.00 0.00 0.00 0.00 0.00 0.00 0.00 0.00 0.00 0.00 0.04 0.13 0.13 0.21 0.19 0.06 0.04 0.01 0.00 0.00 0.00 0.00 0.00 0.00 0.00 0.00 0.00
0.00 0.00 0.00 0.00 0.00 0.00 0.00 0.00 0.00 0.00 0.00 0.00 0.00 0.00 0.01 0.05 0.11 0.11 0.11 0.10 0.04 0.06 0.02 0.00 0.00 0.00 0.00 0.00 0.00 0.00 0.00 0.00
0.00 0.00 0.00 0.00 0.00 0.00 0.00 0.00 0.00 0.00 0.00 0.00 0.00 0.00 0.02 0.09 0.10 0.05 0.03 0.01 0.06 0.19 0.05 0.01 0.00 0.00 0.00 0.00 0.00 0.00 0.00 0.00
0.00 0.00 0.00 0.00 0.00 0.00 0.00 0.00 0.00 0.00 0.00 0.00 0.00 0.01 0.03 0.04 0.01 0.01 0.01 0.03 0.03 0.11 0.05 0.01 0.00 0.00 0.00 0.00 0.01 0.02 0.05 0.07
0.00 0.00 0.00 0.00 0.00 0.00 0.00 0.00 0.00 0.00 0.00 0.00 0.00 0.03 0.03 0.02 0.02 0.03 0.04 0.03 0.16 0.15 0.10 0.05 0.03 0.05 0.09 0.11 0.12 0.08 0.05 0.05
0.00 0.00 0.00 0.00 0.00 0.00 0.00 0.00 0.00 0.00 0.00 0.00 0.01 0.02 0.02 0.01 0.05 0.17 0.19 0.16 0.20 0.13 0.14 0.10 0.11 0.16 0.15 0.10 0.06 0.04 0.04 0.04
0.00 0.00 0.00 0.00 0.00 0.00 0.00 0.00 0.00 0.00 0.00 0.00 0.02 0.05 0.08 0.14 0.21 0.37 0.41 0.31 0.27 0.33 0.24 0.16 0.08 0.06 0.03 0.04 0.05 0.05 0.07 0.09
0.00 0.00 0.00 0.00 0.00 0.00 0.00 0.00 0.00 0.00 0.00 0.01 0.06 0.12 0.16 0.30 0.33 0.25 0.28 0.20 0.12 0.14 0.10 0.04 0.00 0.02 0.07 0.09 0.11 0.10 0.07 0.04
0.00 0.01 0.00 0.00 0.00 0.00 0.00 0.00 0.01 0.04 0.05 0.01 0.06 0.19 0.23 0.24 0.23 0.34 0.29 0.25 0.22 0.21 0.14 0.11 0.12 0.15 0.15 0.12 0.06 0.03 0.02 0.02
0.00 0.01 0.01 0.01 0.00 0.00 0.00 0.06 0.29 0.20 0.15 0.11 0.14 0.23 0.46 0.49 0.39 0.34 0.34 0.18 0.15 0.22 0.21 0.16 0.10 0.06 0.03 0.01 0.01 0.02 0.02 0.02
0.00 0.00 0.00 0.00 0.01 0.01 0.01 0.01 0.10 0.16 0.13 0.33 0.54 0.46 0.74 0.88 0.77 0.46 0.43 0.17 0.17 0.07 0.02 0.02 0.02 0.01 0.01 0.01 0.03 0.03 0.04 0.08
0.00 0.00 0.00 0.00 0.00 0.00 0.01 0.05 0.15 0.25 0.34 0.46 0.47 0.31 0.59 0.43 0.41 0.29 0.14 0.09 0.05 0.02 0.01 0.02 0.02 0.02 0.02 0.02 0.03 0.08 0.11 0.06
0.00 0.00 0.00 0.00 0.00 0.00 0.00 0.02 0.14 0.23 0.15 0.17 0.12 0.12 0.20 0.16 0.10 0.07 0.05 0.03 0.03 0.02 0.01 0.01 0.01 0.01 0.01 0.04 0.09 0.08 0.09 0.08
0.00 0.00 0.00 0.00 0.00 0.00 0.00 0.01 0.05 0.10 0.08 0.06 0.04 0.12 0.03 0.04 0.04 0.02 0.00 0.02 0.01 0.00 0.00 0.00 0.01 0.01 0.04 0.07 0.12 0.12 0.04 0.01
0.00 0.00 0.00 0.00 0.00 0.00 0.00 0.01 0.04 0.03 0.02 0.01 0.01 0.02 0.01 0.01 0.00 0.00 0.00 0.00 0.00 0.00 0.00 0.01 0.01 0.03 0.09 0.12 0.06 0.01 0.00 0.00
0.00 0.00 0.00 0.01 0.00 0.00 0.00 0.01 0.01 0.01 0.01 0.00 0.00 0.00 0.00 0.00 0.00 0.00 0.00 0.00 0.00 0.00 0.00 0.01 0.04 0.07 0.05 0.02 0.01 0.00 0.01 0.00
0.00 0.00 0.00 0.00 0.00 0.00 0.00 0.00 0.00 0.00 0.00 0.00 0.00 0.00 0.00 0.00 0.00 0.00 0.00 0.00 0.00 0.01 0.01 0.03 0.03 0.01 0.01 0.03 0.03 0.01 0.01 0.00